This is the latest recevied weather packets stored in our database for station/object N2PUI. If no packets are shown the sender has not sent any weather packets the latest 10 day(s).
| Time | Temp. | Humidity | Pressure | Rain* | Wind** | Luminosity | Snow |
|---|---|---|---|---|---|---|---|
| 1777504900 | 11.67° C | 92% | 1007.6 hPa | 3.05 mm | - | 1 W/m² | - |
| 1777504598 | 11.67° C | 92% | 1007.4 hPa | 3.05 mm | - | 3 W/m² | - |
| 1777504293 | 11.67° C | 92% | 1007.4 hPa | 3.05 mm | - | 5 W/m² | - |
| 1777503989 | 11.67° C | 92% | 1007.5 hPa | 3.56 mm | - | 2 W/m² | - |
| 1777503686 | 11.67° C | 91% | 1007.5 hPa | 3.05 mm | - | 2 W/m² | - |
| 1777503382 | 11.67° C | 91% | 1007.7 hPa | 3.05 mm | - | 3 W/m² | - |
| 1777503078 | 11.67° C | 91% | 1007.4 hPa | 3.05 mm | - | 6 W/m² | - |
| 1777502776 | 11.67° C | 91% | 1007.4 hPa | 1.27 mm | - | 9 W/m² | - |
| 1777502473 | 11.67° C | 91% | 1007.6 hPa | 0 mm | - | 12 W/m² | - |
| 1777502170 | 11.67° C | 91% | 1007.6 hPa | 1.78 mm | - | 10 W/m² | - |
| 1777501868 | 11.67° C | 91% | 1008 hPa | 1.78 mm | - | 14 W/m² | - |
| 1777501564 | 11.67° C | 91% | 1007.8 hPa | 0 mm | - | 17 W/m² | - |
| 1777501261 | 11.67° C | 91% | 1007.8 hPa | 0 mm | - | 25 W/m² | - |
| 1777500959 | 11.67° C | 90% | 1007.9 hPa | 0 mm | - | 29 W/m² | - |
| 1777500657 | 11.67° C | 90% | 1008 hPa | 1.27 mm | - | 24 W/m² | - |
| 1777500353 | 11.67° C | 91% | 1008 hPa | 1.78 mm | - | 22 W/m² | - |
| 1777500049 | 12.22° C | 91% | 1008.2 hPa | 1.78 mm | - | 20 W/m² | - |
| 1777499746 | 12.22° C | 91% | 1008.3 hPa | 0 mm | - | 33 W/m² | - |
| 1777499443 | 12.22° C | 90% | 1008.3 hPa | 1.27 mm | - | 34 W/m² | - |
| 1777499141 | 12.22° C | 90% | 1008.1 hPa | 3.05 mm | - | 36 W/m² | - |
| 1777498837 | 12.22° C | 90% | 1008.4 hPa | 3.05 mm | - | 28 W/m² | - |
| 1777498534 | 12.22° C | 89% | 1008.2 hPa | 1.27 mm | - | 23 W/m² | - |
| 1777498230 | 12.22° C | 89% | 1008.1 hPa | 0 mm | - | 28 W/m² | - |
| 1777497929 | 12.22° C | 88% | 1008.3 hPa | 0 mm | - | 24 W/m² | - |
| 1777497624 | 12.78° C | 88% | 1008.5 hPa | 0 mm | - | 27 W/m² | - |
* Rain latest hour (hover to see other rain measurements)
** Current wind speed in m/s (hover to see current wind gust speed)